Home   Weather   Appleton   Past weeks

Flag for USA Past Weather in Appleton, Wisconsin, USA — Yesterday and Last 2 Weeks

Now
57 °F

Partly sunny.


Feels Like: 54 °F
Forecast: 48 / 61 °F
Wind: 15 mph from Northeast

Location: Appleton / Outagamie

Current Time: Sep 28, 2016 at 12:17:47 PM

Latest Report: Sep 28, 2016 at 11:45 AM


Visibility: 10 mi

Pressure: 29.99 "Hg

Humidity: 88%

Dew Point: 54 °F

Location of AppletonLocation

Past Weather in Appleton — Graph

°F

Appleton Temperature Yesterday

Maximum temperature yesterday: 55 °F (at 9:45 AM)
Minimum temperature yesterday: 48 °F (at 8:45 PM)
Average temperature yesterday: 51 °F

High & Low Weather Summary for the Past Weeks

 TemperatureHumidityPressure
High81 °F (Sep 20, 2:45 PM)100% (Sep 13, 11:15 PM)30.30 "Hg (Sep 13, 11:15 PM)
Low46 °F (Sep 28, 1:15 AM)30% (Sep 20, 2:45 PM)29.67 "Hg (Sep 27, 6:45 AM)
Average61 °F80%30.01 "Hg
* Reported Sep 13 10:45 AM — Sep 28 10:45 AM, Appleton, Weather by CustomWeather, © 2016

Note: Actual official high and low records may vary slightly from our data, if they occured in-between our weather recording intervals... More about our weather records

Advertising

Appleton Weather History for the Previous 24 Hours

Scroll right to see more
 ConditionsComfort  
Time TempWeatherWind HumidityBarometerVisibility
10:45 AM
Wed, Sep 28
54 °FFog.12 mph100%29.96 "Hg5 mi
9:45 AM54 °FMostly cloudy.16 mph94%29.93 "Hg10 mi
8:45 AM54 °FBroken clouds.9 mph94%29.90 "Hg10 mi
7:45 AM50 °FPartly sunny.6 mph100%29.88 "Hg10 mi
6:45 AM50 °FPartly cloudy.6 mph100%29.85 "Hg10 mi
5:45 AM50 °FPassing clouds.5 mph100%29.82 "Hg10 mi
4:55 AM48 °FMostly cloudy.5 mph100%29.81 "Hg10 mi
4:35 AM48 °FOvercast.6 mph100%29.80 "Hg10 mi
4:15 AM48 °FMostly cloudy.6 mph100%29.79 "Hg10 mi
3:55 AM48 °FMostly cloudy.7 mph100%29.78 "Hg10 mi
3:15 AM48 °FOvercast.7 mph100%29.78 "Hg10 mi
2:55 AM48 °FOvercast.8 mph100%29.77 "Hg10 mi
2:35 AM48 °FMostly cloudy.7 mph100%29.77 "Hg10 mi
2:15 AM48 °FOvercast.7 mph100%29.76 "Hg10 mi
1:55 AM48 °FMostly cloudy.8 mph100%29.76 "Hg10 mi
1:15 AM46 °FFog.9 mph100%29.75 "Hg5 mi
12:55 AM48 °FPartly cloudy.8 mph100%29.75 "Hg10 mi
12:35 AM48 °FOvercast.7 mph100%29.75 "Hg10 mi
12:15 AM48 °FMostly cloudy.7 mph100%29.74 "Hg7 mi
11:55 PM
Tue, Sep 27
48 °FOvercast.7 mph100%29.74 "Hg10 mi
11:15 PM48 °FOvercast.7 mph100%29.74 "Hg7 mi
10:45 PM48 °FMostly cloudy.6 mph100%29.74 "Hg10 mi
9:45 PM48 °FMostly cloudy.7 mph100%29.73 "Hg10 mi
8:45 PM48 °FMostly cloudy.8 mph100%29.73 "Hg10 mi
7:45 PM50 °FLight rain. Mostly cloudy.9 mph100%29.72 "Hg7 mi
5:45 PM50 °FLight rain. Mostly cloudy.10 mph94%29.72 "Hg7 mi
4:45 PM52 °FLight rain. Mostly cloudy.17 mph77%29.71 "Hg5 mi
3:45 PM54 °FOvercast.14 mph67%29.68 "Hg10 mi
2:45 PM54 °FOvercast.14 mph67%29.68 "Hg10 mi
1:45 PM55 °FOvercast.12 mph63%29.67 "Hg10 mi
12:45 PM55 °FDrizzle. Partly sunny.13 mph63%29.67 "Hg10 mi
Weather by CustomWeather, © 2016

See weather overviewHow to use our weather pages